When you browse on this site, cookies collect data to enhance your experience and personalize the content and advertising you see.
Visit our Privacy Policy to learn more. By continuing to use the site, you agree to this use of cookies and data.
  • In Portugal
  • List of Countries
  • For 7 days
  • Water Temperature
  • Satellite Maps
  • Weather Map
  • Weather Widgets
  • user-avatar
    Login

    Hourly Weather Bregenz

    Today, 21 May, Tuesday

    Time Temperature Precipitation Wind Pressure Humidity
    00:00 +4°C° 3.1 mm 3 mps 640 mmHg 97%
    01:00 +4°C° 0 mm 4 mps 640 mmHg 98%
    02:00 +4°C° 2 mm 4 mps 640 mmHg 98%
    03:00 +4°C° 2 mm 3 mps 640 mmHg 98%
    04:00 +3°C° 2 mm 3 mps 640 mmHg 97%
    05:00 +4°C° 0.7 mm 3 mps 641 mmHg 97%
    06:00 +4°C° 0.7 mm 3 mps 641 mmHg 96%
    07:00 +4°C° 0 mm 3 mps 641 mmHg 97%
    08:00 +4°C° 0.5 mm 3 mps 641 mmHg 94%
    09:00 +5°C° 0.5 mm 3 mps 642 mmHg 92%
    10:00 +7°C° 0.5 mm 3 mps 642 mmHg 90%
    11:00 +7°C° 1.6 mm 3 mps 642 mmHg 91%
    12:00 +7°C° 1.6 mm 2 mps 642 mmHg 93%
    13:00 +6°C° 0 mm 2 mps 643 mmHg 93%
    14:00 +6°C° 1.9 mm 2 mps 643 mmHg 94%
    15:00 +6°C° 1.9 mm 2 mps 643 mmHg 95%
    16:00 +6°C° 1.9 mm 2 mps 643 mmHg 97%
    17:00 +6°C° 1.3 mm 2 mps 643 mmHg 97%
    18:00 +6°C° 1.3 mm 1 mps 644 mmHg 97%
    19:00 +6°C° 1.3 mm 1 mps 644 mmHg 97%
    20:00 +6°C° 1.6 mm 1 mps 644 mmHg 97%
    21:00 +6°C° 1.6 mm 1 mps 645 mmHg 98%
    22:00 +5°C° 1.6 mm 0 mps 645 mmHg 98%
    23:00 +5°C° 1.1 mm 0 mps 645 mmHg 98%

    Tomorrow, 22 May, Wednesday

    Time Temperature Precipitation Wind Pressure Humidity
    00:00 +5°C° 1.1 mm 0 mps 645 mmHg 98%
    01:00 +4°C° 1.1 mm 0 mps 645 mmHg 98%
    02:00 +4°C° 0.5 mm 0 mps 646 mmHg 98%
    03:00 +4°C° 0.5 mm 0 mps 646 mmHg 98%
    04:00 +4°C° 0.5 mm 0 mps 646 mmHg 97%
    05:00 +4°C° 0.3 mm 0 mps 646 mmHg 97%
    06:00 +5°C° 0.3 mm 0 mps 646 mmHg 96%
    07:00 +5°C° 0.3 mm 0 mps 646 mmHg 96%
    08:00 +6°C° 0.4 mm 0 mps 646 mmHg 94%
    09:00 +6°C° 0.4 mm 0 mps 646 mmHg 93%
    10:00 +8°C° 0.4 mm 1 mps 646 mmHg 92%
    11:00 +8°C° 0.2 mm 1 mps 647 mmHg 89%
    12:00 +9°C° 0.2 mm 1 mps 647 mmHg 87%
    13:00 +9°C° 0.2 mm 1 mps 647 mmHg 85%
    14:00 +10°C° 0.2 mm 1 mps 647 mmHg 81%
    15:00 +11°C° 0.2 mm 1 mps 647 mmHg 78%
    16:00 +12°C° 0.2 mm 1 mps 648 mmHg 75%
    17:00 +11°C° 0.5 mm 1 mps 647 mmHg 81%
    18:00 +10°C° 0.5 mm 1 mps 647 mmHg 87%
    19:00 +9°C° 0.5 mm 1 mps 647 mmHg 92%
    20:00 +8°C° 0.2 mm 1 mps 647 mmHg 94%
    21:00 +7°C° 0.2 mm 1 mps 648 mmHg 95%
    22:00 +6°C° 0.2 mm 1 mps 648 mmHg 96%
    23:00 +6°C° 0 mm 1 mps 648 mmHg 96%

    Day after tomorrow, 23 May, Thursday

    Time Temperature Precipitation Wind Pressure Humidity
    00:00 +5°C° 0 mm 1 mps 648 mmHg 96%
    01:00 +4°C° 0 mm 0 mps 647 mmHg 97%
    02:00 +3°C° 0 mm 0 mps 647 mmHg 96%
    03:00 +3°C° 0 mm 0 mps 647 mmHg 96%
    04:00 +3°C° 0 mm 0 mps 647 mmHg 96%
    05:00 +4°C° 0 mm 0 mps 647 mmHg 94%
    06:00 +5°C° 0 mm 0 mps 648 mmHg 92%
    07:00 +6°C° 0 mm 0 mps 648 mmHg 90%
    08:00 +8°C° 0 mm 0 mps 648 mmHg 82%
    09:00 +10°C° 0 mm 1 mps 648 mmHg 73%
    10:00 +12°C° 0 mm 1 mps 649 mmHg 65%
    11:00 +13°C° 0 mm 2 mps 649 mmHg 59%
    12:00 +14°C° 0 mm 2 mps 649 mmHg 53%
    13:00 +15°C° 0 mm 2 mps 649 mmHg 48%
    14:00 +15°C° 0 mm 2 mps 649 mmHg 49%
    15:00 +15°C° 0 mm 2 mps 648 mmHg 50%
    16:00 +14°C° 0 mm 3 mps 648 mmHg 51%
    17:00 +14°C° 0 mm 2 mps 648 mmHg 60%
    18:00 +13°C° 0 mm 2 mps 648 mmHg 69%
    19:00 +11°C° 0 mm 1 mps 647 mmHg 78%
    20:00 +10°C° 0 mm 1 mps 647 mmHg 83%
    21:00 +8°C° 0 mm 1 mps 647 mmHg 88%
    22:00 +6°C° 0 mm 1 mps 647 mmHg 93%
    23:00 +6°C° 0 mm 1 mps 647 mmHg 93%

    24 May, Friday

    Time Temperature Precipitation Wind Pressure Humidity
    00:00 +6°C° 0 mm 1 mps 646 mmHg 93%
    01:00 +5°C° 0 mm 1 mps 646 mmHg 92%
    02:00 +5°C° 0 mm 1 mps 646 mmHg 92%
    03:00 +5°C° 0 mm 1 mps 646 mmHg 91%
    04:00 +4°C° 0 mm 1 mps 645 mmHg 90%
    05:00 +6°C° 0 mm 1 mps 646 mmHg 85%
    06:00 +8°C° 0 mm 1 mps 646 mmHg 79%
    07:00 +8°C° 0 mm 0 mps 646 mmHg 73%
    08:00 +11°C° 0 mm 1 mps 647 mmHg 68%
    09:00 +13°C° 0 mm 1 mps 647 mmHg 63%
    10:00 +14°C° 0 mm 1 mps 648 mmHg 58%
    11:00 +15°C° 0 mm 2 mps 648 mmHg 55%
    12:00 +16°C° 0 mm 2 mps 648 mmHg 52%
    13:00 +17°C° 0 mm 2 mps 648 mmHg 50%
    14:00 +16°C° 0 mm 2 mps 647 mmHg 50%
    15:00 +16°C° 0 mm 2 mps 647 mmHg 51%
    16:00 +16°C° 0 mm 2 mps 647 mmHg 52%
    17:00 +15°C° 0 mm 2 mps 647 mmHg 60%
    18:00 +14°C° 0 mm 2 mps 646 mmHg 68%
    19:00 +12°C° 0 mm 1 mps 646 mmHg 76%
    20:00 +11°C° 0 mm 1 mps 646 mmHg 81%
    21:00 +9°C° 0 mm 1 mps 645 mmHg 85%
    22:00 +7°C° 0 mm 1 mps 645 mmHg 90%
    23:00 +7°C° 0 mm 1 mps 645 mmHg 91%

    25 May, Saturday

    Time Temperature Precipitation Wind Pressure Humidity
    00:00 +7°C° 0 mm 1 mps 645 mmHg 91%
    01:00 +7°C° 0 mm 1 mps 645 mmHg 91%
    02:00 +7°C° 0 mm 1 mps 645 mmHg 91%
    03:00 +6°C° 0 mm 1 mps 645 mmHg 91%
    04:00 +6°C° 0 mm 1 mps 645 mmHg 91%
    05:00 +8°C° 0 mm 1 mps 645 mmHg 87%
    06:00 +8°C° 0 mm 0 mps 646 mmHg 82%
    07:00 +9°C° 0 mm 0 mps 646 mmHg 78%
    08:00 +11°C° 0 mm 0 mps 647 mmHg 72%
    09:00 +13°C° 0 mm 1 mps 647 mmHg 67%
    10:00 +15°C° 0 mm 1 mps 648 mmHg 62%
    11:00 +15°C° 0.1 mm 1 mps 648 mmHg 60%
    12:00 +16°C° 0.1 mm 1 mps 648 mmHg 58%
    13:00 +16°C° 0.1 mm 2 mps 648 mmHg 56%
    14:00 +16°C° 0.2 mm 2 mps 648 mmHg 60%
    15:00 +16°C° 0.2 mm 2 mps 647 mmHg 64%
    16:00 +15°C° 0.2 mm 2 mps 647 mmHg 67%
    17:00 +14°C° 0.5 mm 2 mps 647 mmHg 75%
    18:00 +13°C° 0.5 mm 1 mps 647 mmHg 83%
    19:00 +11°C° 0.5 mm 1 mps 647 mmHg 91%
    20:00 +10°C° 0.4 mm 1 mps 647 mmHg 93%
    21:00 +8°C° 0.4 mm 0 mps 647 mmHg 94%
    22:00 +7°C° 0.4 mm 0 mps 647 mmHg 95%
    23:00 +7°C° 0.1 mm 0 mps 647 mmHg 96%

    26 May, Sunday

    Time Temperature Precipitation Wind Pressure Humidity
    00:00 +8°C° 0.1 mm 1 mps 646 mmHg 96%
    01:00 +7°C° 0.1 mm 1 mps 646 mmHg 96%
    02:00 +7°C° 0.1 mm 1 mps 646 mmHg 96%
    03:00 +7°C° 0.1 mm 1 mps 646 mmHg 96%
    04:00 +7°C° 0.1 mm 1 mps 646 mmHg 96%
    05:00 +7°C° 0.2 mm 0 mps 647 mmHg 95%
    06:00 +8°C° 0.2 mm 0 mps 647 mmHg 94%
    07:00 +8°C° 0.2 mm 0 mps 647 mmHg 93%
    08:00 +11°C° 0.4 mm 1 mps 647 mmHg 87%
    09:00 +12°C° 0.4 mm 1 mps 648 mmHg 81%
    10:00 +13°C° 0.4 mm 1 mps 648 mmHg 75%
    11:00 +14°C° 0.3 mm 1 mps 648 mmHg 71%
    12:00 +15°C° 0.3 mm 2 mps 648 mmHg 68%
    13:00 +15°C° 0.3 mm 2 mps 648 mmHg 64%
    14:00 +15°C° 0.3 mm 2 mps 648 mmHg 65%
    15:00 +15°C° 0.3 mm 2 mps 648 mmHg 66%
    16:00 +15°C° 0.3 mm 2 mps 648 mmHg 66%
    17:00 +14°C° 0.4 mm 1 mps 648 mmHg 73%
    18:00 +13°C° 0.4 mm 1 mps 647 mmHg 80%
    19:00 +11°C° 0.4 mm 0 mps 647 mmHg 87%
    20:00 +11°C° 0.1 mm 1 mps 647 mmHg 89%
    21:00 +9°C° 0.1 mm 1 mps 647 mmHg 90%
    22:00 +8°C° 0.1 mm 1 mps 647 mmHg 91%
    23:00 +8°C° 0 mm 1 mps 647 mmHg 92%
    Show more